Time,TemperatureF,DewpointF,PressureIn,WindDirection,WindDirectionDegrees,WindSpeedMPH,WindSpeedGustMPH,Humidity,HourlyPrecipIn,Conditions,Clouds,dailyrainin,SoftwareType,DateUTC
2013-04-19 00:05:00,70.1,65.0,29.89,SSE,163,0.0,0.0,84,0.00,,,0.00,Wunderground v.1.15,2013-04-19 04:05:00,
2013-04-19 00:09:00,70.0,64.9,29.89,SSE,164,0.0,0.0,84,0.00,,,0.00,Wunderground v.1.15,2013-04-19 04:09:00,
2013-04-19 00:15:00,69.9,65.2,29.88,SSE,164,0.0,0.0,85,0.00,,,0.00,Wunderground v.1.15,2013-04-19 04:15:00,
2013-04-19 00:20:00,69.8,65.4,29.88,SSE,164,0.0,0.0,86,0.00,,,0.00,Wunderground v.1.15,2013-04-19 04:20:00,
2013-04-19 00:29:00,69.6,65.6,29.88,SSE,162,0.0,0.0,87,0.00,,,0.00,Wunderground v.1.15,2013-04-19 04:29:00,
2013-04-19 00:34:00,69.6,65.6,29.88,SSE,162,0.0,0.0,87,0.00,,,0.00,Wunderground v.1.15,2013-04-19 04:34:00,
2013-04-19 00:39:00,69.5,65.8,29.88,SSE,161,0.0,0.0,88,0.00,,,0.00,Wunderground v.1.15,2013-04-19 04:39:00,
2013-04-19 00:45:00,69.5,65.8,29.88,SSE,162,0.0,0.0,88,0.00,,,0.00,Wunderground v.1.15,2013-04-19 04:45:00,
2013-04-19 00:50:00,69.4,65.7,29.88,SSE,161,0.0,0.0,88,0.00,,,0.00,Wunderground v.1.15,2013-04-19 04:50:00,
2013-04-19 01:00:00,69.4,66.0,29.87,SSE,162,0.0,0.0,89,0.00,,,0.00,Wunderground v.1.15,2013-04-19 05:00:00,
2013-04-19 01:09:00,69.3,65.9,29.87,SSE,161,0.0,2.0,89,0.00,,,0.00,Wunderground v.1.15,2013-04-19 05:09:00,
2013-04-19 01:15:00,69.4,66.0,29.87,SSE,161,0.0,2.0,89,0.00,,,0.00,Wunderground v.1.15,2013-04-19 05:15:00,
2013-04-19 01:20:00,69.5,66.1,29.87,SSE,162,1.0,1.0,89,0.00,,,0.00,Wunderground v.1.15,2013-04-19 05:20:00,
2013-04-19 01:29:00,69.4,66.0,29.87,SE,126,0.0,0.0,89,0.00,,,0.00,Wunderground v.1.15,2013-04-19 05:29:00,
2013-04-19 01:39:00,69.4,66.0,29.87,SE,126,0.0,0.0,89,0.00,,,0.00,Wunderground v.1.15,2013-04-19 05:39:00,
2013-04-19 01:45:00,69.4,66.3,29.86,SE,127,0.0,0.0,90,0.00,,,0.00,Wunderground v.1.15,2013-04-19 05:45:00,
2013-04-19 01:50:00,69.4,66.3,29.86,SE,126,0.0,0.0,90,0.00,,,0.00,Wunderground v.1.15,2013-04-19 05:50:00,
2013-04-19 01:59:00,69.2,66.1,29.84,SSE,148,1.0,1.0,90,0.00,,,0.00,Wunderground v.1.15,2013-04-19 05:59:00,
2013-04-19 02:09:00,69.1,66.4,29.84,SSE,148,0.0,0.0,91,0.00,,,0.00,Wunderground v.1.15,2013-04-19 06:09:00,
2013-04-19 02:15:00,69.1,66.4,29.84,SSE,148,0.0,0.0,91,0.00,,,0.00,Wunderground v.1.15,2013-04-19 06:15:00,
2013-04-19 02:24:00,69.0,66.3,29.84,SSE,148,0.0,3.0,91,0.00,,,0.00,Wunderground v.1.15,2013-04-19 06:24:00,
2013-04-19 02:29:00,69.0,66.3,29.84,SSE,160,1.0,1.0,91,0.00,,,0.00,Wunderground v.1.15,2013-04-19 06:29:00,
2013-04-19 02:39:00,69.0,65.9,29.84,SSE,160,0.0,3.0,90,0.00,,,0.00,Wunderground v.1.15,2013-04-19 06:39:00,
2013-04-19 02:45:00,69.0,65.9,29.82,SSE,158,1.0,3.0,90,0.00,,,0.00,Wunderground v.1.15,2013-04-19 06:45:00,
2013-04-19 02:50:00,69.0,65.9,29.82,SSE,158,0.0,0.0,90,0.00,,,0.00,Wunderground v.1.15,2013-04-19 06:50:00,
2013-04-19 02:59:00,68.9,65.8,29.82,SSE,157,0.0,1.0,90,0.00,,,0.00,Wunderground v.1.15,2013-04-19 06:59:00,
2013-04-19 03:09:00,68.9,65.8,29.82,SSE,157,1.0,1.0,90,0.00,,,0.00,Wunderground v.1.15,2013-04-19 07:09:00,
2013-04-19 03:15:00,68.9,65.8,29.81,SSE,157,0.0,3.0,90,0.00,,,0.00,Wunderground v.1.15,2013-04-19 07:15:00,
2013-04-19 03:20:00,68.9,65.5,29.81,SE,138,1.0,1.0,89,0.00,,,0.00,Wunderground v.1.15,2013-04-19 07:20:00,
2013-04-19 03:29:00,68.9,65.5,29.80,SE,141,0.0,0.0,89,0.00,,,0.00,Wunderground v.1.15,2013-04-19 07:29:00,
2013-04-19 03:40:00,68.8,65.4,29.80,SE,144,0.0,1.0,89,0.00,,,0.00,Wunderground v.1.15,2013-04-19 07:40:00,
2013-04-19 03:50:00,68.8,65.1,29.80,SSE,151,1.0,1.0,88,0.00,,,0.00,Wunderground v.1.15,2013-04-19 07:50:00,
2013-04-19 03:59:00,68.6,64.9,29.79,SSE,150,0.0,2.0,88,0.00,,,0.00,Wunderground v.1.15,2013-04-19 07:59:00,
2013-04-19 04:09:00,68.5,64.8,29.79,SSE,157,1.0,1.0,88,0.00,,,0.00,Wunderground v.1.15,2013-04-19 08:09:00,
2013-04-19 04:15:00,68.4,64.7,29.79,South,169,1.0,1.0,88,0.00,,,0.00,Wunderground v.1.15,2013-04-19 08:15:00,
2013-04-19 04:24:00,68.3,64.9,29.79,SSE,149,0.0,1.0,89,0.00,,,0.00,Wunderground v.1.15,2013-04-19 08:24:00,
2013-04-19 04:29:00,68.2,64.8,29.78,SSE,150,1.0,1.0,89,0.00,,,0.00,Wunderground v.1.15,2013-04-19 08:29:00,
2013-04-19 04:39:00,68.1,64.7,29.78,SSE,153,1.0,2.0,89,0.00,,,0.00,Wunderground v.1.15,2013-04-19 08:39:00,
2013-04-19 04:45:00,68.1,64.7,29.79,SSE,164,1.0,2.0,89,0.00,,,0.00,Wunderground v.1.15,2013-04-19 08:45:00,
2013-04-19 04:50:00,68.1,64.4,29.79,SSE,164,1.0,1.0,88,0.00,,,0.00,Wunderground v.1.15,2013-04-19 08:50:00,
2013-04-19 04:59:00,68.2,64.8,29.79,SSE,157,1.0,1.0,89,0.00,,,0.00,Wunderground v.1.15,2013-04-19 08:59:00,
2013-04-19 05:09:00,68.5,65.1,29.79,South,174,2.0,2.0,89,0.00,,,0.00,Wunderground v.1.15,2013-04-19 09:09:00,
2013-04-19 05:15:00,68.5,65.1,29.79,SSE,168,2.0,2.0,89,0.00,,,0.00,Wunderground v.1.15,2013-04-19 09:15:00,
2013-04-19 05:20:00,68.6,64.9,29.79,SE,145,2.0,2.0,88,0.00,,,0.00,Wunderground v.1.15,2013-04-19 09:20:00,
2013-04-19 05:29:00,68.6,64.9,29.79,South,173,2.0,2.0,88,0.00,,,0.00,Wunderground v.1.15,2013-04-19 09:29:00,
2013-04-19 05:39:00,68.6,65.2,29.79,SSE,155,1.0,1.0,89,0.00,,,0.00,Wunderground v.1.15,2013-04-19 09:39:00,
2013-04-19 05:45:00,68.5,65.1,29.79,SSE,160,0.0,3.0,89,0.00,,,0.00,Wunderground v.1.15,2013-04-19 09:45:00,
2013-04-19 05:50:00,68.5,65.1,29.79,SSE,155,1.0,3.0,89,0.00,,,0.00,Wunderground v.1.15,2013-04-19 09:50:00,
2013-04-19 05:59:00,68.4,65.0,29.79,SSE,153,3.0,3.0,89,0.00,,,0.00,Wunderground v.1.15,2013-04-19 09:59:00,
2013-04-19 06:09:00,68.3,64.9,29.79,SSE,159,2.0,2.0,89,0.00,,,0.00,Wunderground v.1.15,2013-04-19 10:09:00,
2013-04-19 06:15:00,68.1,64.7,29.79,SSE,158,2.0,3.0,89,0.00,,,0.00,Wunderground v.1.15,2013-04-19 10:15:00,
2013-04-19 06:20:00,68.1,65.1,29.79,SSE,158,2.0,2.0,90,0.00,,,0.00,Wunderground v.1.15,2013-04-19 10:20:00,
2013-04-19 06:29:00,67.9,64.9,29.79,SSE,158,1.0,2.0,90,0.00,,,0.00,Wunderground v.1.15,2013-04-19 10:29:00,
2013-04-19 06:39:00,67.9,64.9,29.79,SSE,168,2.0,2.0,90,0.00,,,0.00,Wunderground v.1.15,2013-04-19 10:39:00,
2013-04-19 06:45:00,67.9,64.9,29.79,SSE,157,2.0,2.0,90,0.00,,,0.00,Wunderground v.1.15,2013-04-19 10:45:00,
2013-04-19 06:50:00,67.8,65.1,29.79,SSE,156,2.0,2.0,91,0.00,,,0.00,Wunderground v.1.15,2013-04-19 10:50:00,
2013-04-19 06:59:00,67.7,65.0,29.80,SSE,161,1.0,1.0,91,0.00,,,0.00,Wunderground v.1.15,2013-04-19 10:59:00,
2013-04-19 07:09:00,67.6,64.9,29.80,SE,140,0.0,0.0,91,0.00,,,0.00,Wunderground v.1.15,2013-04-19 11:09:00,
2013-04-19 07:15:00,67.5,65.1,29.81,SSE,163,1.0,1.0,92,0.00,,,0.00,Wunderground v.1.15,2013-04-19 11:15:00,
2013-04-19 07:25:00,67.5,65.1,29.81,SSE,165,0.0,1.0,92,0.00,,,0.00,Wunderground v.1.15,2013-04-19 11:25:00,
2013-04-19 07:30:00,67.4,65.0,29.81,SSE,164,0.0,0.0,92,0.00,,,0.00,Wunderground v.1.15,2013-04-19 11:30:00,
2013-04-19 07:39:00,67.4,65.3,29.81,SSE,165,0.0,2.0,93,0.00,,,0.00,Wunderground v.1.15,2013-04-19 11:39:00,
2013-04-19 07:45:00,67.4,65.3,29.81,SSE,165,1.0,2.0,93,0.00,,,0.00,Wunderground v.1.15,2013-04-19 11:45:00,
2013-04-19 07:50:00,67.4,65.3,29.81,SE,146,1.0,3.0,93,0.00,,,0.00,Wunderground v.1.15,2013-04-19 11:50:00,
2013-04-19 08:00:00,67.5,65.4,29.81,SSE,163,2.0,3.0,93,0.00,,,0.00,Wunderground v.1.15,2013-04-19 12:00:00,
2013-04-19 08:09:00,66.9,65.7,29.81,SSE,156,1.0,3.0,96,0.00,,,0.00,Wunderground v.1.15,2013-04-19 12:09:00,
2013-04-19 08:15:00,66.4,65.5,29.81,SSE,161,1.0,3.0,97,0.00,,,0.00,Wunderground v.1.15,2013-04-19 12:15:00,
2013-04-19 08:20:00,66.1,65.5,29.81,SSE,161,1.0,1.0,98,0.00,,,0.00,Wunderground v.1.15,2013-04-19 12:20:00,
2013-04-19 08:30:00,65.7,65.4,29.81,SSE,161,0.0,0.0,99,0.00,,,0.00,Wunderground v.1.15,2013-04-19 12:30:00,
2013-04-19 08:39:00,65.6,65.6,29.81,SSE,161,0.0,0.0,100,0.00,,,0.00,Wunderground v.1.15,2013-04-19 12:39:00,
2013-04-19 08:49:00,65.5,65.5,29.81,SSE,161,0.0,0.0,100,0.00,,,0.00,Wunderground v.1.15,2013-04-19 12:49:00,
2013-04-19 08:54:00,65.5,65.5,29.81,SSE,161,0.0,0.0,100,0.00,,,0.00,Wunderground v.1.15,2013-04-19 12:54:00,
2013-04-19 08:59:00,65.6,65.6,29.78,SSE,161,0.0,0.0,100,0.00,,,0.01,Wunderground v.1.15,2013-04-19 12:59:00,
2013-04-19 09:09:00,65.6,65.6,29.78,SSE,161,0.0,0.0,100,0.00,,,0.01,Wunderground v.1.15,2013-04-19 13:09:00,
2013-04-19 09:15:00,65.7,65.7,29.79,SSE,161,0.0,0.0,100,0.00,,,0.01,Wunderground v.1.15,2013-04-19 13:15:00,
2013-04-19 09:20:00,65.8,65.8,29.79,SSE,161,0.0,0.0,100,0.00,,,0.01,Wunderground v.1.15,2013-04-19 13:20:00,
2013-04-19 09:29:00,66.0,66.0,29.79,SSE,162,0.0,1.0,100,0.00,,,0.01,Wunderground v.1.15,2013-04-19 13:29:00,
2013-04-19 09:39:00,66.2,66.2,29.79,SSE,161,0.0,0.0,100,0.00,,,0.01,Wunderground v.1.15,2013-04-19 13:39:00,
2013-04-19 09:45:00,66.4,66.4,29.78,SSE,161,0.0,0.0,100,0.00,,,0.01,Wunderground v.1.15,2013-04-19 13:45:00,
2013-04-19 09:50:00,66.5,66.5,29.78,SSE,162,1.0,2.0,100,0.00,,,0.01,Wunderground v.1.15,2013-04-19 13:50:00,
2013-04-19 09:59:00,66.6,66.6,29.77,SSE,161,1.0,1.0,100,0.00,,,0.01,Wunderground v.1.15,2013-04-19 13:59:00,
2013-04-19 10:09:00,66.6,66.6,29.77,SSE,161,1.0,1.0,100,0.00,,,0.01,Wunderground v.1.15,2013-04-19 14:09:00,
2013-04-19 10:15:00,66.6,66.6,29.76,SE,146,1.0,1.0,100,0.00,,,0.01,Wunderground v.1.15,2013-04-19 14:15:00,
2013-04-19 10:20:00,66.6,66.6,29.76,SE,146,1.0,1.0,100,0.00,,,0.01,Wunderground v.1.15,2013-04-19 14:20:00,
2013-04-19 10:29:00,66.6,66.6,29.76,South,176,0.0,0.0,100,0.00,,,0.02,Wunderground v.1.15,2013-04-19 14:29:00,
2013-04-19 10:39:00,66.5,66.5,29.76,South,176,0.0,0.0,100,3.72,,,0.12,Wunderground v.1.15,2013-04-19 14:39:00,
2013-04-19 10:50:00,64.7,64.7,29.78,NNE,19,0.0,0.0,100,0.18,,,0.18,Wunderground v.1.15,2013-04-19 14:50:00,
2013-04-19 11:00:00,62.6,62.6,29.81,North,360,0.0,0.0,100,0.05,,,0.18,Wunderground v.1.15,2013-04-19 15:00:00,
2013-04-19 11:09:00,60.3,60.0,29.81,SSE,159,0.0,0.0,99,0.00,,,0.18,Wunderground v.1.15,2013-04-19 15:09:00,
2013-04-19 11:19:00,59.0,59.0,29.83,SSE,163,1.0,1.0,100,0.00,,,0.19,Wunderground v.1.15,2013-04-19 15:19:00,
2013-04-19 11:25:00,58.2,58.2,29.83,SSW,196,1.0,1.0,100,0.06,,,0.20,Wunderground v.1.15,2013-04-19 15:25:00,
2013-04-19 11:34:00,57.2,57.2,29.86,East,91,0.0,0.0,100,0.06,,,0.21,Wunderground v.1.15,2013-04-19 15:34:00,
2013-04-19 11:39:00,56.9,56.9,29.86,SE,125,0.0,0.0,100,0.06,,,0.21,Wunderground v.1.15,2013-04-19 15:39:00,
2013-04-19 11:45:00,56.6,56.6,29.86,SE,129,0.0,0.0,100,0.40,,,0.24,Wunderground v.1.15,2013-04-19 15:45:00,
2013-04-19 11:55:00,56.2,56.2,29.86,South,180,0.0,0.0,100,0.26,,,0.32,Wunderground v.1.15,2013-04-19 15:55:00,
2013-04-19 12:00:00,56.1,56.1,29.87,South,180,0.0,0.0,100,0.13,,,0.33,Wunderground v.1.15,2013-04-19 16:00:00,
2013-04-19 12:09:00,55.7,55.7,29.87,NE,42,0.0,0.0,100,0.16,,,0.35,Wunderground v.1.15,2013-04-19 16:09:00,
2013-04-19 12:19:00,54.6,54.6,29.88,West,267,0.0,0.0,100,0.08,,,0.37,Wunderground v.1.15,2013-04-19 16:19:00,
2013-04-19 12:25:00,54.1,54.1,29.88,North,5,0.0,0.0,100,0.13,,,0.38,Wunderground v.1.15,2013-04-19 16:25:00,
2013-04-19 12:30:00,53.9,53.9,29.89,North,9,0.0,0.0,100,0.29,,,0.40,Wunderground v.1.15,2013-04-19 16:30:00,
2013-04-19 12:39:00,53.0,53.0,29.89,WNW,303,0.0,0.0,100,0.16,,,0.42,Wunderground v.1.15,2013-04-19 16:39:00,
2013-04-19 12:49:00,52.3,52.3,29.88,NNW,333,0.0,0.0,100,0.10,,,0.44,Wunderground v.1.15,2013-04-19 16:49:00,
2013-04-19 12:55:00,52.1,52.1,29.88,NNW,344,0.0,0.0,100,0.09,,,0.44,Wunderground v.1.15,2013-04-19 16:55:00,
2013-04-19 13:00:00,52.0,52.0,29.88,SSE,151,0.0,1.0,100,0.06,,,0.45,Wunderground v.1.15,2013-04-19 17:00:00,
2013-04-19 13:09:00,51.9,51.9,29.88,SE,142,0.0,0.0,100,0.11,,,0.49,Wunderground v.1.15,2013-04-19 17:09:00,
2013-04-19 13:19:00,52.0,52.0,29.90,SE,142,0.0,0.0,100,0.13,,,0.52,Wunderground v.1.15,2013-04-19 17:19:00,
2013-04-19 13:25:00,51.8,51.8,29.90,SE,142,0.0,0.0,100,0.06,,,0.52,Wunderground v.1.15,2013-04-19 17:25:00,
2013-04-19 13:30:00,51.9,51.9,29.89,SE,142,0.0,0.0,100,0.04,,,0.52,Wunderground v.1.15,2013-04-19 17:30:00,
2013-04-19 13:39:00,52.2,52.2,29.89,SSE,165,0.0,0.0,100,0.00,,,0.53,Wunderground v.1.15,2013-04-19 17:39:00,
2013-04-19 13:49:00,52.1,52.1,29.91,SSE,165,0.0,0.0,100,0.07,,,0.54,Wunderground v.1.15,2013-04-19 17:49:00,
2013-04-19 13:55:00,51.9,51.9,29.91,SSE,159,0.0,0.0,100,0.04,,,0.54,Wunderground v.1.15,2013-04-19 17:55:00,
2013-04-19 14:00:00,51.9,51.9,29.92,SSE,159,0.0,0.0,100,0.00,,,0.54,Wunderground v.1.15,2013-04-19 18:00:00,
2013-04-19 14:09:00,51.9,51.9,29.92,ESE,121,0.0,0.0,100,0.00,,,0.55,Wunderground v.1.15,2013-04-19 18:09:00,
2013-04-19 14:19:00,51.7,51.7,29.90,SE,140,0.0,0.0,100,0.00,,,0.55,Wunderground v.1.15,2013-04-19 18:19:00,
2013-04-19 14:25:00,51.6,51.6,29.90,SSE,157,0.0,0.0,100,0.00,,,0.55,Wunderground v.1.15,2013-04-19 18:25:00,
2013-04-19 14:30:00,51.5,51.5,29.89,SE,145,0.0,0.0,100,0.00,,,0.55,Wunderground v.1.15,2013-04-19 18:30:00,
2013-04-19 14:40:00,51.8,51.8,29.89,SSE,148,0.0,0.0,100,0.00,,,0.55,Wunderground v.1.15,2013-04-19 18:40:00,
2013-04-19 14:49:00,51.6,51.6,29.89,North,360,0.0,0.0,100,0.00,,,0.55,Wunderground v.1.15,2013-04-19 18:49:00,
2013-04-19 14:55:00,51.6,51.6,29.89,NNW,346,0.0,0.0,100,0.00,,,0.55,Wunderground v.1.15,2013-04-19 18:55:00,
2013-04-19 15:00:00,51.5,51.5,29.88,NNW,346,0.0,0.0,100,0.00,,,0.55,Wunderground v.1.15,2013-04-19 19:00:00,
2013-04-19 15:10:00,51.4,51.4,29.88,SSE,163,0.0,0.0,100,0.00,,,0.55,Wunderground v.1.15,2013-04-19 19:10:00,
2013-04-19 15:19:00,51.4,51.4,29.85,SSE,163,0.0,0.0,100,0.00,,,0.55,Wunderground v.1.15,2013-04-19 19:19:00,
2013-04-19 15:25:00,51.4,51.4,29.85,SSE,163,0.0,0.0,100,0.00,,,0.55,Wunderground v.1.15,2013-04-19 19:25:00,
2013-04-19 15:30:00,51.3,51.3,29.88,NW,317,0.0,0.0,100,0.00,,,0.55,Wunderground v.1.15,2013-04-19 19:30:00,
2013-04-19 15:39:00,51.2,51.2,29.88,East,84,0.0,0.0,100,0.00,,,0.55,Wunderground v.1.15,2013-04-19 19:39:00,
2013-04-19 15:49:00,51.0,51.0,29.89,SE,142,0.0,0.0,100,0.00,,,0.55,Wunderground v.1.15,2013-04-19 19:49:00,
2013-04-19 15:55:00,50.8,50.8,29.89,SE,140,0.0,0.0,100,0.00,,,0.55,Wunderground v.1.15,2013-04-19 19:55:00,
2013-04-19 16:04:00,51.0,51.0,29.89,ENE,60,0.0,0.0,100,0.00,,,0.55,Wunderground v.1.15,2013-04-19 20:04:00,
2013-04-19 16:09:00,50.8,50.8,29.89,SSE,157,0.0,1.0,100,0.00,,,0.55,Wunderground v.1.15,2013-04-19 20:09:00,
2013-04-19 16:19:00,50.4,50.4,29.88,ESE,117,0.0,0.0,100,0.00,,,0.55,Wunderground v.1.15,2013-04-19 20:19:00,
2013-04-19 16:25:00,50.4,50.4,29.88,East,92,0.0,0.0,100,0.00,,,0.55,Wunderground v.1.15,2013-04-19 20:25:00,
2013-04-19 16:30:00,50.4,50.4,29.91,ESE,107,0.0,0.0,100,0.00,,,0.55,Wunderground v.1.15,2013-04-19 20:30:00,
2013-04-19 16:39:00,49.9,49.9,29.91,SSE,148,0.0,0.0,100,0.00,,,0.55,Wunderground v.1.15,2013-04-19 20:39:00,
2013-04-19 16:49:00,49.6,49.6,29.92,SSE,148,0.0,0.0,100,0.00,,,0.55,Wunderground v.1.15,2013-04-19 20:49:00,
2013-04-19 16:55:00,49.5,49.5,29.92,SSE,148,0.0,0.0,100,0.00,,,0.55,Wunderground v.1.15,2013-04-19 20:55:00,
2013-04-19 17:00:00,49.5,49.5,29.90,ESE,121,0.0,0.0,100,0.00,,,0.55,Wunderground v.1.15,2013-04-19 21:00:00,
2013-04-19 17:09:00,49.5,49.5,29.90,SSE,156,0.0,0.0,100,0.00,,,0.55,Wunderground v.1.15,2013-04-19 21:09:00,
2013-04-19 17:19:00,49.1,49.1,29.90,ESE,111,0.0,0.0,100,0.00,,,0.55,Wunderground v.1.15,2013-04-19 21:19:00,
2013-04-19 17:25:00,49.1,49.1,29.90,ESE,111,0.0,0.0,100,0.00,,,0.55,Wunderground v.1.15,2013-04-19 21:25:00,
2013-04-19 17:30:00,49.1,49.1,29.90,SSE,161,0.0,0.0,100,0.00,,,0.55,Wunderground v.1.15,2013-04-19 21:30:00,
2013-04-19 17:39:00,49.6,49.6,29.90,SSE,160,0.0,0.0,100,0.00,,,0.55,Wunderground v.1.15,2013-04-19 21:39:00,
2013-04-19 17:49:00,49.8,49.8,29.89,SSE,164,0.0,2.0,100,0.00,,,0.55,Wunderground v.1.15,2013-04-19 21:49:00,
2013-04-19 17:55:00,49.8,49.8,29.89,SSE,164,0.0,2.0,100,0.00,,,0.55,Wunderground v.1.15,2013-04-19 21:55:00,
2013-04-19 18:04:00,49.9,49.9,29.90,SSE,158,0.0,0.0,100,0.00,,,0.55,Wunderground v.1.15,2013-04-19 22:04:00,
2013-04-19 18:09:00,49.7,49.7,29.90,SSE,155,0.0,0.0,100,0.00,,,0.55,Wunderground v.1.15,2013-04-19 22:09:00,
2013-04-19 18:19:00,49.6,49.3,29.90,SSE,155,0.0,0.0,99,0.00,,,0.55,Wunderground v.1.15,2013-04-19 22:19:00,
2013-04-19 18:25:00,49.6,49.6,29.90,SSE,158,0.0,0.0,100,0.00,,,0.55,Wunderground v.1.15,2013-04-19 22:25:00,
2013-04-19 18:35:00,49.6,49.6,29.91,SSE,157,0.0,0.0,100,0.00,,,0.55,Wunderground v.1.15,2013-04-19 22:35:00,
2013-04-19 18:44:00,49.4,49.4,29.90,SSE,153,0.0,0.0,100,0.00,,,0.55,Wunderground v.1.15,2013-04-19 22:44:00,
2013-04-19 18:49:00,49.5,49.5,29.90,SSE,153,0.0,0.0,100,0.00,,,0.55,Wunderground v.1.15,2013-04-19 22:49:00,
2013-04-19 18:59:00,49.5,49.5,29.91,SSE,153,0.0,0.0,100,0.00,,,0.55,Wunderground v.1.15,2013-04-19 22:59:00,
2013-04-19 19:05:00,49.4,49.1,29.91,ESE,122,0.0,0.0,99,0.00,,,0.55,Wunderground v.1.15,2013-04-19 23:05:00,
2013-04-19 19:10:00,49.5,49.5,29.91,ESE,123,0.0,0.0,100,0.00,,,0.55,Wunderground v.1.15,2013-04-19 23:10:00,
2013-04-19 19:19:00,49.5,49.2,29.90,SE,127,0.0,0.0,99,0.00,,,0.55,Wunderground v.1.15,2013-04-19 23:19:00,
2013-04-19 19:25:00,49.4,48.9,29.90,SE,142,0.0,0.0,98,0.00,,,0.55,Wunderground v.1.15,2013-04-19 23:25:00,
2013-04-19 19:34:00,49.3,49.0,29.91,NE,42,0.0,0.0,99,0.00,,,0.55,Wunderground v.1.15,2013-04-19 23:34:00,
2013-04-19 19:40:00,49.3,49.0,29.91,NE,42,0.0,0.0,99,0.00,,,0.55,Wunderground v.1.15,2013-04-19 23:40:00,
2013-04-19 19:49:00,49.2,48.7,29.91,NE,42,0.0,0.0,98,0.00,,,0.55,Wunderground v.1.15,2013-04-19 23:49:00,
2013-04-19 20:00:00,49.1,48.6,29.91,NE,42,0.0,0.0,98,0.00,,,0.55,Wunderground v.1.15,2013-04-20 00:00:00,
2013-04-19 20:10:00,48.8,47.4,29.91,NNE,14,0.0,2.0,95,0.00,,,0.55,Wunderground v.1.15,2013-04-20 00:10:00,
2013-04-19 20:20:00,48.6,47.2,29.92,East,95,0.0,0.0,95,0.00,,,0.55,Wunderground v.1.15,2013-04-20 00:20:00,
2013-04-19 20:29:00,48.2,47.1,29.94,SE,129,0.0,0.0,96,0.00,,,0.55,Wunderground v.1.15,2013-04-20 00:29:00,
2013-04-19 20:40:00,48.0,46.6,29.94,SE,127,0.0,0.0,95,0.00,,,0.55,Wunderground v.1.15,2013-04-20 00:40:00,
2013-04-19 20:49:00,47.8,46.2,29.94,North,5,0.0,0.0,94,0.00,,,0.55,Wunderground v.1.15,2013-04-20 00:49:00,
2013-04-19 20:59:00,47.5,45.6,29.96,North,5,0.0,0.0,93,0.00,,,0.55,Wunderground v.1.15,2013-04-20 00:59:00,
2013-04-19 21:05:00,47.5,45.6,29.96,North,360,0.0,0.0,93,0.00,,,0.55,Wunderground v.1.15,2013-04-20 01:05:00,
2013-04-19 21:14:00,47.4,46.0,29.98,North,360,0.0,0.0,95,0.00,,,0.55,Wunderground v.1.15,2013-04-20 01:14:00,
2013-04-19 21:19:00,47.4,46.0,29.98,North,360,0.0,0.0,95,0.00,,,0.55,Wunderground v.1.15,2013-04-20 01:19:00,
2013-04-19 21:29:00,47.3,45.9,29.99,ESE,109,0.0,0.0,95,0.00,,,0.55,Wunderground v.1.15,2013-04-20 01:29:00,
2013-04-19 21:35:00,47.2,45.8,29.99,ESE,121,0.0,0.0,95,0.00,,,0.55,Wunderground v.1.15,2013-04-20 01:35:00,
2013-04-19 21:40:00,47.0,45.4,29.99,West,265,0.0,1.0,94,0.00,,,0.55,Wunderground v.1.15,2013-04-20 01:40:00,
2013-04-19 21:50:00,46.8,44.6,30.00,WNW,294,0.0,4.0,92,0.00,,,0.55,Wunderground v.1.15,2013-04-20 01:50:00,
2013-04-19 21:59:00,46.5,43.7,30.00,NE,38,0.0,2.0,90,0.00,,,0.55,Wunderground v.1.15,2013-04-20 01:59:00,
2013-04-19 22:05:00,46.4,43.6,30.00,ENE,72,1.0,2.0,90,0.00,,,0.55,Wunderground v.1.15,2013-04-20 02:05:00,
2013-04-19 22:10:00,46.3,43.2,30.00,North,355,1.0,1.0,89,0.00,,,0.55,Wunderground v.1.15,2013-04-20 02:10:00,
2013-04-19 22:19:00,46.1,43.3,30.01,NNE,13,0.0,0.0,90,0.00,,,0.55,Wunderground v.1.15,2013-04-20 02:19:00,
2013-04-19 22:29:00,45.9,43.1,30.02,NNE,22,0.0,0.0,90,0.00,,,0.55,Wunderground v.1.15,2013-04-20 02:29:00,
2013-04-19 22:35:00,45.8,43.3,30.02,NNE,20,0.0,0.0,91,0.00,,,0.55,Wunderground v.1.15,2013-04-20 02:35:00,
2013-04-19 22:40:00,45.6,42.8,30.02,NNE,20,0.0,0.0,90,0.00,,,0.55,Wunderground v.1.15,2013-04-20 02:40:00,
2013-04-19 22:49:00,45.4,43.2,30.03,North,11,0.0,0.0,92,0.00,,,0.55,Wunderground v.1.15,2013-04-20 02:49:00,
2013-04-19 22:59:00,45.1,42.6,30.03,NNE,26,0.0,0.0,91,0.00,,,0.55,Wunderground v.1.15,2013-04-20 02:59:00,
2013-04-19 23:09:00,45.0,42.8,30.03,NNE,26,0.0,0.0,92,0.00,,,0.55,Wunderground v.1.15,2013-04-20 03:09:00,
2013-04-19 23:14:00,44.8,42.3,30.04,NNE,26,0.0,0.0,91,0.00,,,0.55,Wunderground v.1.15,2013-04-20 03:14:00,
2013-04-19 23:19:00,44.6,41.8,30.04,NNE,26,0.0,0.0,90,0.00,,,0.55,Wunderground v.1.15,2013-04-20 03:19:00,
2013-04-19 23:29:00,44.5,42.0,30.04,SSE,164,0.0,0.0,91,0.00,,,0.55,Wunderground v.1.15,2013-04-20 03:29:00,
2013-04-19 23:35:00,44.5,41.7,30.04,SSE,164,0.0,0.0,90,0.00,,,0.55,Wunderground v.1.15,2013-04-20 03:35:00,
2013-04-19 23:40:00,44.4,42.2,30.04,East,94,0.0,0.0,92,0.00,,,0.55,Wunderground v.1.15,2013-04-20 03:40:00,
2013-04-19 23:49:00,44.2,41.7,30.04,NNW,348,0.0,0.0,91,0.00,,,0.55,Wunderground v.1.15,2013-04-20 03:49:00,
2013-04-19 23:59:00,44.1,41.6,30.04,NE,48,0.0,0.0,91,0.00,,,0.55,Wunderground v.1.15,2013-04-20 03:59:00,